Location: *
(35.8942°N, 23.3025°E)
Time: 13:42:10
(UTC+00:00)

Tiangong - Pass Details

Date: 11 December 2021
Orbit: 383 x 386 km, 41.5° (Epoch: 21 January)

Event Time Altitude Azimuth Distance (km) Brightness Sun altitude
Rises 15:49:32 0° 255° (WSW) 2,274 7.2 -7.5°
Reaches altitude 10° 15:51:38 10° 260° (W) 1,419 5.5 -7.9°
Maximum altitude 15:54:48 59° 340° (NNW) 454 1.4 -8.5°
Enters shadow 15:57:36 13° 60° (ENE) 1,273 3.0 -9.0°
